Regional Weather Roundup
Issued by NWS State College, PA

Home | Current Version | Previous Version | Graphics & Text | Print | Product List | Glossary On
Versions: 1 2 3 4 5 6 7 8 9 10 11 12 13 14 15 16 17 18 19 20 21 22 23 24 25 26 27 28 29 30 31 32 33 34 35 36 37 38 39 40 41 42 43 44 45 46 47 48 49 50
000
ASUS41 KCTP 211610
RWRCTP

REGIONAL WEATHER ROUNDUP
NATIONAL WEATHER SERVICE STATE COLLEGE PA
1200 PM EDT SAT OCT 21 2017

Note: "fair" indicates few or no clouds below 12,000 feet with no
significant weather and/or obstructions to visibility.

* = STATION THAT DOES NOT REPORT PRECIPITATION /E.G. RAIN...SNOW...ETC/
    THUNDER OR FOG.

PAZ002>004-007>009-013>016-020>023-029>032-211700-
WESTERN PENNSYLVANIA

CITY           SKY/WX    TMP DP  RH WIND       PRES   REMARKS
ERIE           MOSUNNY   67  46  47 S10       30.28F
MEADVILLE      MOSUNNY   64  43  46 VRB5      30.31F
FRANKLIN*      MOSUNNY   65  44  46 S9        30.32F
NEW CASTLE     FAIR      65  46  50 VRB3      30.31F
BEAVER COUNTY  NOT AVBL
BUTLER*        SUNNY     67  46  47 VRB3      30.31F
PITTSBURGH INT PTSUNNY   67  49  52 S3        30.30F
PITTSBURGH     SUNNY     68  45  43 SE6       30.30F
INDIANA*       SUNNY     70  43  37 S5        30.35F
LATROBE        SUNNY     70  48  46 CALM      30.32F
WASHINGTON CO* SUNNY     70  52  52 S6        30.32F
$$

PAZ004>006-010>012-017>019-024>028-033>037-041-042-045-046-049>053-211700-
CENTRAL PENNSYLVANIA

CITY           SKY/WX    TMP DP  RH WIND       PRES   REMARKS
BRADFORD       CLOUDY    68  37  32 S6        30.35S
DUBOIS         CLOUDY    65  38  36 S8        30.33F
CLEARFIELD     CLOUDY    61  41  47 CALM      30.36F
JOHNSTOWN      SUNNY     69  39  33 S8        30.36S
ALTOONA        SUNNY     67  42  40 CALM      30.37S
STATE COLLEGE  SUNNY     61  46  59 CALM      30.37F
WILLIAMSPORT   CLOUDY    60  44  55 E3        30.36F
SELINSGROVE    SUNNY     62  44  51 CALM      30.37F
FT INDIANTOWN  SUNNY     67  45  44 CALM      30.35F
CAPITAL CITY   SUNNY     68  44  42 CALM      30.36F
HARRISBURG     MOSUNNY   63  52  67 CALM      30.35F
YORK           SUNNY     70  46  42 CALM      30.36F
$$

PAZ038>040-043-044-047-048-054-055-060>062-067>071-211700-
EASTERN PENNSYLVANIA

CITY           SKY/WX    TMP DP  RH WIND       PRES   REMARKS
SCRANTON       SUNNY     64  43  46 W3        30.36F
MOUNT POCONO   SUNNY     71  31  22 W7        30.37F
ALLENTOWN      SUNNY     68  42  38 CALM      30.36F
QUAKERTOWN*    SUNNY     72  39  30 CALM      30.37S
READING        SUNNY     67  48  50 CALM      30.35F
LANCASTER      SUNNY     67  50  54 CALM      30.36F
COATESVILLE    SUNNY     72  39  30 CALM      30.37F
POTTSTOWN      SUNNY     69  45  41 CALM      30.37F
BLUE BELL      SUNNY     72  43  35 CALM      30.37F
DOYLESTOWN     SUNNY     72  37  28 CALM      30.35F
WILLOW GROVE   NOT AVBL
NORTH PHILA    SUNNY     74  40  29 CALM      30.36F
PHILADELPHIA   MOSUNNY   71  45  39 VRB3      30.36S
$$



USA.gov is the U.S. government's official web portal to all federal, state and local government web resources and services.